Time,TemperatureF,DewpointF,PressureIn,WindDirection,WindDirectionDegrees,WindSpeedMPH,WindSpeedGustMPH,Humidity,HourlyPrecipIn,Conditions,Clouds,dailyrainin,SoftwareType,DateUTC
2013-12-02 00:00:00,29.5,28.5,30.01,East,80,2.0,2.0,96,0.00,,,0.00,VWS V14.01,2013-12-02 05:00:00,
2013-12-02 00:01:00,29.5,28.5,30.01,East,80,2.0,2.0,96,0.00,,,0.00,VWS V14.01,2013-12-02 05:01:00,
2013-12-02 00:02:00,29.4,28.4,30.01,East,80,1.0,2.0,96,0.00,,,0.00,VWS V14.01,2013-12-02 05:02:00,
2013-12-02 00:03:00,29.4,28.4,30.01,East,80,1.0,2.0,96,0.00,,,0.00,VWS V14.01,2013-12-02 05:03:00,
2013-12-02 00:04:00,29.4,28.4,30.01,East,80,1.0,2.0,96,0.00,,,0.00,VWS V14.01,2013-12-02 05:04:00,
2013-12-02 00:09:00,29.4,28.4,30.01,East,80,1.0,2.0,96,0.00,,,0.00,VWS V14.01,2013-12-02 05:09:00,
2013-12-02 00:14:00,29.4,28.4,30.01,East,80,1.0,2.0,96,0.00,,,0.00,VWS V14.01,2013-12-02 05:14:00,
2013-12-02 00:19:00,29.3,28.3,30.01,East,80,0.0,2.0,96,0.00,,,0.00,VWS V14.01,2013-12-02 05:19:00,
2013-12-02 00:24:00,29.2,28.2,30.01,East,80,0.0,2.0,96,0.00,,,0.00,VWS V14.01,2013-12-02 05:24:00,
2013-12-02 00:29:00,29.1,28.1,30.01,East,80,0.0,2.0,96,0.00,,,0.00,VWS V14.01,2013-12-02 05:29:00,
2013-12-02 00:34:00,29.0,28.0,30.01,East,80,2.0,2.0,96,0.00,,,0.00,VWS V14.01,2013-12-02 05:34:00,
2013-12-02 00:39:00,29.0,28.0,30.00,East,80,1.0,2.0,96,0.00,,,0.00,VWS V14.01,2013-12-02 05:39:00,
2013-12-02 00:45:00,29.0,28.0,30.00,East,80,0.0,2.0,96,0.00,,,0.00,VWS V14.01,2013-12-02 05:45:00,
2013-12-02 00:50:00,29.1,28.1,30.00,East,80,2.0,2.0,96,0.00,,,0.00,VWS V14.01,2013-12-02 05:50:00,
2013-12-02 00:55:00,29.2,28.2,30.00,East,80,1.0,2.0,96,0.00,,,0.00,VWS V14.01,2013-12-02 05:55:00,
2013-12-02 01:00:00,29.1,28.1,30.00,East,80,1.0,2.0,96,0.00,,,0.00,VWS V14.01,2013-12-02 06:00:00,
2013-12-02 01:05:00,28.9,27.9,30.00,East,80,0.0,2.0,96,0.00,,,0.00,VWS V14.01,2013-12-02 06:05:00,
2013-12-02 01:10:00,28.8,27.8,30.00,East,80,1.0,2.0,96,0.00,,,0.00,VWS V14.01,2013-12-02 06:10:00,
2013-12-02 01:15:00,28.6,27.6,30.00,East,80,0.0,2.0,96,0.00,,,0.00,VWS V14.01,2013-12-02 06:15:00,
2013-12-02 01:20:00,28.5,27.5,29.99,East,80,1.0,2.0,96,0.00,,,0.00,VWS V14.01,2013-12-02 06:20:00,
2013-12-02 01:25:00,28.5,27.5,29.99,NE,44,3.0,3.0,96,0.00,,,0.00,VWS V14.01,2013-12-02 06:25:00,
2013-12-02 01:30:00,28.7,27.7,29.99,NE,44,0.0,1.0,96,0.00,,,0.00,VWS V14.01,2013-12-02 06:30:00,
2013-12-02 01:36:00,28.7,27.7,30.00,NE,44,0.0,1.0,96,0.00,,,0.00,VWS V14.01,2013-12-02 06:36:00,
2013-12-02 01:41:00,28.5,27.5,30.00,NE,44,0.0,1.0,96,0.00,,,0.00,VWS V14.01,2013-12-02 06:41:00,
2013-12-02 01:46:00,28.4,27.4,30.00,NE,44,0.0,1.0,96,0.00,,,0.00,VWS V14.01,2013-12-02 06:46:00,
2013-12-02 01:51:00,28.3,27.3,30.00,NE,44,0.0,1.0,96,0.00,,,0.00,VWS V14.01,2013-12-02 06:51:00,
2013-12-02 01:56:00,28.1,27.1,30.00,NE,44,0.0,1.0,96,0.00,,,0.00,VWS V14.01,2013-12-02 06:56:00,
2013-12-02 02:01:00,28.0,27.0,30.00,NE,44,0.0,0.0,96,0.00,,,0.00,VWS V14.01,2013-12-02 07:01:00,
2013-12-02 02:06:00,27.8,26.8,30.00,NE,44,1.0,2.0,96,0.00,,,0.00,VWS V14.01,2013-12-02 07:06:00,
2013-12-02 02:11:00,27.7,26.7,30.00,NE,44,0.0,2.0,96,0.00,,,0.00,VWS V14.01,2013-12-02 07:11:00,
2013-12-02 02:16:00,27.7,26.7,30.00,NE,44,0.0,2.0,96,0.00,,,0.00,VWS V14.01,2013-12-02 07:16:00,
2013-12-02 02:22:00,27.8,26.8,30.00,NE,44,0.0,2.0,96,0.00,,,0.00,VWS V14.01,2013-12-02 07:22:00,
2013-12-02 02:27:00,27.8,26.8,30.00,NE,44,0.0,2.0,96,0.00,,,0.00,VWS V14.01,2013-12-02 07:27:00,
2013-12-02 02:32:00,27.9,26.9,30.00,NE,44,0.0,1.0,96,0.00,,,0.00,VWS V14.01,2013-12-02 07:32:00,
2013-12-02 02:37:00,28.0,27.0,30.00,NE,44,1.0,2.0,96,0.00,,,0.00,VWS V14.01,2013-12-02 07:37:00,
2013-12-02 02:42:00,28.3,27.6,30.00,NE,44,1.0,2.0,97,0.00,,,0.00,VWS V14.01,2013-12-02 07:42:00,
2013-12-02 02:47:00,28.5,27.8,30.00,NE,44,0.0,2.0,97,0.00,,,0.00,VWS V14.01,2013-12-02 07:47:00,
2013-12-02 02:52:00,28.7,28.0,29.99,NE,44,0.0,2.0,97,0.00,,,0.00,VWS V14.01,2013-12-02 07:52:00,
2013-12-02 02:57:00,28.8,28.1,29.99,NE,44,0.0,2.0,97,0.00,,,0.00,VWS V14.01,2013-12-02 07:57:00,
2013-12-02 03:02:00,28.9,28.2,29.99,NE,44,0.0,0.0,97,0.00,,,0.00,VWS V14.01,2013-12-02 08:02:00,
2013-12-02 03:08:00,29.0,28.3,29.99,NE,44,0.0,0.0,97,0.00,,,0.00,VWS V14.01,2013-12-02 08:08:00,
2013-12-02 03:13:00,29.1,28.4,29.99,NE,44,0.0,1.0,97,0.00,,,0.00,VWS V14.01,2013-12-02 08:13:00,
2013-12-02 03:18:00,29.2,28.5,29.99,NE,44,0.0,1.0,97,0.00,,,0.00,VWS V14.01,2013-12-02 08:18:00,
2013-12-02 03:23:00,29.3,28.6,29.98,NE,44,0.0,1.0,97,0.00,,,0.00,VWS V14.01,2013-12-02 08:23:00,
2013-12-02 03:28:00,29.3,28.6,29.99,NE,44,0.0,1.0,97,0.00,,,0.00,VWS V14.01,2013-12-02 08:28:00,
2013-12-02 03:33:00,29.3,28.6,29.98,NE,44,0.0,1.0,97,0.00,,,0.00,VWS V14.01,2013-12-02 08:33:00,
2013-12-02 03:38:00,29.4,28.7,29.97,NE,44,2.0,2.0,97,0.00,,,0.00,VWS V14.01,2013-12-02 08:38:00,
2013-12-02 03:43:00,29.5,28.8,29.98,NE,44,0.0,2.0,97,0.00,,,0.00,VWS V14.01,2013-12-02 08:43:00,
2013-12-02 03:48:00,29.5,28.8,29.97,NE,44,0.0,2.0,97,0.00,,,0.00,VWS V14.01,2013-12-02 08:48:00,
2013-12-02 03:54:00,29.6,28.9,29.97,NE,44,1.0,2.0,97,0.00,,,0.00,VWS V14.01,2013-12-02 08:54:00,
2013-12-02 03:59:00,29.8,29.0,29.98,NE,44,1.0,2.0,97,0.00,,,0.00,VWS V14.01,2013-12-02 08:59:00,
2013-12-02 04:04:00,29.8,29.0,29.97,NE,44,0.0,0.0,97,0.00,,,0.00,VWS V14.01,2013-12-02 09:04:00,
2013-12-02 04:09:00,29.9,29.1,29.98,NE,44,0.0,0.0,97,0.00,,,0.00,VWS V14.01,2013-12-02 09:09:00,
2013-12-02 04:14:00,30.0,29.2,29.97,NE,44,1.0,2.0,97,0.00,,,0.00,VWS V14.01,2013-12-02 09:14:00,
2013-12-02 04:19:00,30.1,29.4,29.97,NE,44,0.0,2.0,97,0.00,,,0.00,VWS V14.01,2013-12-02 09:19:00,
2013-12-02 04:24:00,30.3,29.5,29.97,NE,44,2.0,2.0,97,0.00,,,0.00,VWS V14.01,2013-12-02 09:24:00,
2013-12-02 04:29:00,30.5,29.8,29.98,NE,44,0.0,2.0,97,0.00,,,0.00,VWS V14.01,2013-12-02 09:29:00,
2013-12-02 04:34:00,30.6,29.9,29.98,NE,44,0.0,1.0,97,0.00,,,0.00,VWS V14.01,2013-12-02 09:34:00,
2013-12-02 04:40:00,30.6,29.9,29.98,NE,44,0.0,1.0,97,0.00,,,0.00,VWS V14.01,2013-12-02 09:40:00,
2013-12-02 04:45:00,30.7,30.0,29.98,NE,44,1.0,2.0,97,0.00,,,0.00,VWS V14.01,2013-12-02 09:45:00,
2013-12-02 04:50:00,30.8,30.0,29.98,NE,44,0.0,2.0,97,0.00,,,0.00,VWS V14.01,2013-12-02 09:50:00,
2013-12-02 04:55:00,30.8,30.0,29.98,NE,44,0.0,2.0,97,0.00,,,0.00,VWS V14.01,2013-12-02 09:55:00,
2013-12-02 05:00:00,31.0,30.2,29.98,NE,44,0.0,0.0,97,0.00,,,0.00,VWS V14.01,2013-12-02 10:00:00,
2013-12-02 05:05:00,31.1,30.4,29.97,NE,44,1.0,2.0,97,0.00,,,0.00,VWS V14.01,2013-12-02 10:05:00,
2013-12-02 05:10:00,31.2,30.5,29.97,NE,44,0.0,2.0,97,0.00,,,0.00,VWS V14.01,2013-12-02 10:10:00,
2013-12-02 05:15:00,31.3,30.5,29.97,NE,44,0.0,2.0,97,0.00,,,0.00,VWS V14.01,2013-12-02 10:15:00,
2013-12-02 05:20:00,31.4,30.6,29.97,NE,44,0.0,2.0,97,0.00,,,0.00,VWS V14.01,2013-12-02 10:20:00,
2013-12-02 05:26:00,31.5,30.8,29.97,NE,44,0.0,2.0,97,0.00,,,0.00,VWS V14.01,2013-12-02 10:26:00,
2013-12-02 05:31:00,31.5,30.8,29.97,NE,44,1.0,1.0,97,0.00,,,0.00,VWS V14.01,2013-12-02 10:31:00,
2013-12-02 05:36:00,31.5,30.8,29.97,NE,44,0.0,1.0,97,0.00,,,0.00,VWS V14.01,2013-12-02 10:36:00,
2013-12-02 05:41:00,31.5,30.8,29.98,NE,44,0.0,1.0,97,0.00,,,0.00,VWS V14.01,2013-12-02 10:41:00,
2013-12-02 05:46:00,31.6,30.9,29.98,NE,44,0.0,1.0,97,0.00,,,0.00,VWS V14.01,2013-12-02 10:46:00,
2013-12-02 05:51:00,31.6,30.6,29.98,NE,44,0.0,1.0,96,0.00,,,0.00,VWS V14.01,2013-12-02 10:51:00,
2013-12-02 05:56:00,31.6,30.6,29.98,NE,44,0.0,1.0,96,0.00,,,0.00,VWS V14.01,2013-12-02 10:56:00,
2013-12-02 06:01:00,31.7,30.7,29.97,NE,44,0.0,1.0,96,0.00,,,0.00,VWS V14.01,2013-12-02 11:01:00,
2013-12-02 06:06:00,31.6,30.6,29.97,NE,44,0.0,1.0,96,0.00,,,0.00,VWS V14.01,2013-12-02 11:06:00,
2013-12-02 06:12:00,31.6,30.6,29.98,NE,44,0.0,1.0,96,0.00,,,0.00,VWS V14.01,2013-12-02 11:12:00,
2013-12-02 06:17:00,31.7,30.7,29.97,NE,44,0.0,1.0,96,0.00,,,0.00,VWS V14.01,2013-12-02 11:17:00,
2013-12-02 06:22:00,31.6,30.6,29.97,NE,44,0.0,1.0,96,0.00,,,0.00,VWS V14.01,2013-12-02 11:22:00,
2013-12-02 06:27:00,31.6,30.6,29.97,NE,44,0.0,1.0,96,0.00,,,0.00,VWS V14.01,2013-12-02 11:27:00,
2013-12-02 06:32:00,31.5,30.5,29.97,NE,44,0.0,0.0,96,0.00,,,0.00,VWS V14.01,2013-12-02 11:32:00,
2013-12-02 06:37:00,31.5,30.5,29.97,NE,44,0.0,0.0,96,0.00,,,0.00,VWS V14.01,2013-12-02 11:37:00,
2013-12-02 06:42:00,31.5,30.5,29.97,NE,44,0.0,0.0,96,0.00,,,0.00,VWS V14.01,2013-12-02 11:42:00,
2013-12-02 06:47:00,31.5,30.5,29.98,NE,44,0.0,0.0,96,0.00,,,0.00,VWS V14.01,2013-12-02 11:47:00,
2013-12-02 06:52:00,31.5,30.5,29.98,NE,44,0.0,0.0,96,0.00,,,0.00,VWS V14.01,2013-12-02 11:52:00,
2013-12-02 06:58:00,31.5,30.5,29.97,NE,44,0.0,0.0,96,0.00,,,0.00,VWS V14.01,2013-12-02 11:58:00,
2013-12-02 07:03:00,31.5,30.5,29.97,NE,44,0.0,0.0,96,0.00,,,0.00,VWS V14.01,2013-12-02 12:03:00,
2013-12-02 07:08:00,31.5,30.5,29.97,NE,44,0.0,0.0,96,0.00,,,0.00,VWS V14.01,2013-12-02 12:08:00,
2013-12-02 07:13:00,31.5,30.5,29.97,NE,44,0.0,0.0,96,0.00,,,0.00,VWS V14.01,2013-12-02 12:13:00,
2013-12-02 07:18:00,31.5,30.8,29.97,NE,44,0.0,0.0,97,0.00,,,0.00,VWS V14.01,2013-12-02 12:18:00,
2013-12-02 07:23:00,31.5,30.8,29.97,NE,44,0.0,0.0,97,0.00,,,0.00,VWS V14.01,2013-12-02 12:23:00,
2013-12-02 07:28:00,31.6,30.9,29.97,NE,44,0.0,0.0,97,0.00,,,0.00,VWS V14.01,2013-12-02 12:28:00,
2013-12-02 07:33:00,31.6,30.9,29.97,NE,44,0.0,0.0,97,0.00,,,0.00,VWS V14.01,2013-12-02 12:33:00,
2013-12-02 07:38:00,31.7,31.0,29.98,NE,44,0.0,0.0,97,0.00,,,0.00,VWS V14.01,2013-12-02 12:38:00,
2013-12-02 07:44:00,31.8,31.0,29.98,NE,44,0.0,0.0,97,0.00,,,0.00,VWS V14.01,2013-12-02 12:44:00,
2013-12-02 07:49:00,31.9,31.1,29.98,NE,44,0.0,0.0,97,0.00,,,0.00,VWS V14.01,2013-12-02 12:49:00,
2013-12-02 07:54:00,32.0,31.2,29.98,NE,44,0.0,0.0,97,0.00,,,0.00,VWS V14.01,2013-12-02 12:54:00,
2013-12-02 07:59:00,32.1,31.4,29.98,NE,44,0.0,0.0,97,0.00,,,0.00,VWS V14.01,2013-12-02 12:59:00,
2013-12-02 08:04:00,32.3,31.5,29.98,NE,44,0.0,0.0,97,0.00,,,0.00,VWS V14.01,2013-12-02 13:04:00,
2013-12-02 08:09:00,32.4,31.6,29.98,NE,44,0.0,0.0,97,0.00,,,0.00,VWS V14.01,2013-12-02 13:09:00,
2013-12-02 08:14:00,32.5,31.7,29.98,NE,44,0.0,0.0,97,0.00,,,0.00,VWS V14.01,2013-12-02 13:14:00,
2013-12-02 08:19:00,32.5,31.7,29.98,NE,44,0.0,0.0,97,0.00,,,0.00,VWS V14.01,2013-12-02 13:19:00,
2013-12-02 08:24:00,32.6,31.8,29.98,NE,44,0.0,0.0,97,0.00,,,0.00,VWS V14.01,2013-12-02 13:24:00,
2013-12-02 08:30:00,32.7,31.9,29.98,NE,44,0.0,0.0,97,0.00,,,0.00,VWS V14.01,2013-12-02 13:30:00,
2013-12-02 08:35:00,32.9,32.1,29.98,NE,44,0.0,0.0,97,0.00,,,0.00,VWS V14.01,2013-12-02 13:35:00,
2013-12-02 08:40:00,33.0,32.2,29.98,NE,44,0.0,0.0,97,0.00,,,0.00,VWS V14.01,2013-12-02 13:40:00,
2013-12-02 08:45:00,33.4,32.6,29.98,NE,44,0.0,0.0,97,0.00,,,0.00,VWS V14.01,2013-12-02 13:45:00,
2013-12-02 08:50:00,33.7,32.9,29.98,NE,44,0.0,0.0,97,0.00,,,0.00,VWS V14.01,2013-12-02 13:50:00,
2013-12-02 08:55:00,34.0,33.2,29.98,NE,44,0.0,0.0,97,0.00,,,0.00,VWS V14.01,2013-12-02 13:55:00,
2013-12-02 09:00:00,34.2,33.4,29.98,NE,44,0.0,0.0,97,0.00,,,0.00,VWS V14.01,2013-12-02 14:00:00,
2013-12-02 09:05:00,34.4,33.6,29.98,NE,44,0.0,1.0,97,0.00,,,0.00,VWS V14.01,2013-12-02 14:05:00,
2013-12-02 09:11:00,34.5,33.5,29.99,NE,44,0.0,1.0,96,0.00,,,0.00,VWS V14.01,2013-12-02 14:11:00,
2013-12-02 09:16:00,34.7,33.7,29.99,NE,44,0.0,1.0,96,0.00,,,0.00,VWS V14.01,2013-12-02 14:16:00,
2013-12-02 09:21:00,34.8,33.5,29.98,NE,44,0.0,1.0,95,0.00,,,0.00,VWS V14.01,2013-12-02 14:21:00,
2013-12-02 09:26:00,34.9,33.6,29.98,NE,44,0.0,1.0,95,0.00,,,0.00,VWS V14.01,2013-12-02 14:26:00,
2013-12-02 09:31:00,35.0,33.7,29.98,NE,44,0.0,0.0,95,0.00,,,0.00,VWS V14.01,2013-12-02 14:31:00,
2013-12-02 09:36:00,35.1,33.8,29.98,NE,44,0.0,0.0,95,0.00,,,0.00,VWS V14.01,2013-12-02 14:36:00,
2013-12-02 09:41:00,35.2,33.7,29.98,NE,44,0.0,2.0,94,0.00,,,0.00,VWS V14.01,2013-12-02 14:41:00,
2013-12-02 09:46:00,35.2,33.7,29.98,NE,44,0.0,2.0,94,0.00,,,0.00,VWS V14.01,2013-12-02 14:46:00,
2013-12-02 09:51:00,35.4,33.8,29.98,NE,44,0.0,2.0,94,0.00,,,0.00,VWS V14.01,2013-12-02 14:51:00,
2013-12-02 09:59:00,35.5,34.0,29.98,NE,44,0.0,2.0,94,0.00,,,0.00,VWS V14.01,2013-12-02 14:59:00,
2013-12-02 10:04:00,35.7,34.2,29.98,NE,44,0.0,1.0,94,0.00,,,0.00,VWS V14.01,2013-12-02 15:04:00,
2013-12-02 10:09:00,35.8,34.0,29.99,NE,44,0.0,1.0,93,0.00,,,0.00,VWS V14.01,2013-12-02 15:09:00,
2013-12-02 10:14:00,35.9,34.1,29.98,NE,44,0.0,1.0,93,0.00,,,0.00,VWS V14.01,2013-12-02 15:14:00,
2013-12-02 10:19:00,36.0,34.2,29.98,NE,44,0.0,2.0,93,0.00,,,0.00,VWS V14.01,2013-12-02 15:19:00,
2013-12-02 10:24:00,36.1,34.3,29.98,NE,44,0.0,2.0,93,0.00,,,0.00,VWS V14.01,2013-12-02 15:24:00,
2013-12-02 10:29:00,36.2,34.4,29.98,NE,44,0.0,2.0,93,0.00,,,0.00,VWS V14.01,2013-12-02 15:29:00,
2013-12-02 10:35:00,36.3,34.5,29.98,NE,44,0.0,0.0,93,0.00,,,0.00,VWS V14.01,2013-12-02 15:35:00,
2013-12-02 10:40:00,36.4,34.6,29.98,NE,44,0.0,0.0,93,0.00,,,0.00,VWS V14.01,2013-12-02 15:40:00,
2013-12-02 10:45:00,36.5,34.4,29.98,NE,44,0.0,1.0,92,0.00,,,0.00,VWS V14.01,2013-12-02 15:45:00,
2013-12-02 10:50:00,36.6,34.5,29.97,NE,44,0.0,1.0,92,0.00,,,0.00,VWS V14.01,2013-12-02 15:50:00,
2013-12-02 10:55:00,36.7,34.6,29.97,NE,44,0.0,1.0,92,0.00,,,0.00,VWS V14.01,2013-12-02 15:55:00,
2013-12-02 11:00:00,36.8,34.7,29.97,NE,44,0.0,0.0,92,0.00,,,0.00,VWS V14.01,2013-12-02 16:00:00,
2013-12-02 11:05:00,36.9,34.8,29.97,NE,44,0.0,0.0,92,0.00,,,0.00,VWS V14.01,2013-12-02 16:05:00,
2013-12-02 11:10:00,37.0,34.6,29.97,NE,44,0.0,1.0,91,0.00,,,0.00,VWS V14.01,2013-12-02 16:10:00,
2013-12-02 11:16:00,37.0,34.6,29.97,NE,44,0.0,1.0,91,0.00,,,0.00,VWS V14.01,2013-12-02 16:16:00,
2013-12-02 11:21:00,37.1,34.7,29.97,NE,44,0.0,1.0,91,0.00,,,0.00,VWS V14.01,2013-12-02 16:21:00,
2013-12-02 11:26:00,37.1,34.4,29.96,NE,44,0.0,1.0,90,0.00,,,0.00,VWS V14.01,2013-12-02 16:26:00,
2013-12-02 11:31:00,37.2,34.5,29.96,NE,44,0.0,0.0,90,0.00,,,0.00,VWS V14.01,2013-12-02 16:31:00,
2013-12-02 11:36:00,37.3,34.6,29.96,NE,44,0.0,0.0,90,0.00,,,0.00,VWS V14.01,2013-12-02 16:36:00,
2013-12-02 11:41:00,37.3,34.6,29.96,NE,44,0.0,1.0,90,0.00,,,0.00,VWS V14.01,2013-12-02 16:41:00,
2013-12-02 11:46:00,37.2,34.5,29.96,NE,44,1.0,2.0,90,0.00,,,0.00,VWS V14.01,2013-12-02 16:46:00,
2013-12-02 11:51:00,37.1,34.4,29.96,NE,44,0.0,2.0,90,0.00,,,0.00,VWS V14.01,2013-12-02 16:51:00,
2013-12-02 11:56:00,37.1,34.4,29.96,NE,44,0.0,2.0,90,0.00,,,0.00,VWS V14.01,2013-12-02 16:56:00,
2013-12-02 12:01:00,37.1,34.4,29.95,NE,44,0.0,0.0,90,0.00,,,0.00,VWS V14.01,2013-12-02 17:01:00,
2013-12-02 12:06:00,37.1,34.4,29.95,NE,44,0.0,0.0,90,0.00,,,0.00,VWS V14.01,2013-12-02 17:06:00,
2013-12-02 12:11:00,37.3,34.6,29.95,NE,44,0.0,0.0,90,0.00,,,0.00,VWS V14.01,2013-12-02 17:11:00,
2013-12-02 12:17:00,37.4,35.0,29.95,NE,44,0.0,0.0,91,0.00,,,0.00,VWS V14.01,2013-12-02 17:17:00,
2013-12-02 12:22:00,37.6,34.9,29.95,NE,44,0.0,0.0,90,0.00,,,0.00,VWS V14.01,2013-12-02 17:22:00,
2013-12-02 12:27:00,37.7,34.8,29.95,NE,44,0.0,1.0,89,0.00,,,0.00,VWS V14.01,2013-12-02 17:27:00,
2013-12-02 12:32:00,37.7,34.8,29.94,NE,44,0.0,0.0,89,0.00,,,0.00,VWS V14.01,2013-12-02 17:32:00,
2013-12-02 12:37:00,37.8,34.9,29.94,NE,44,0.0,0.0,89,0.00,,,0.00,VWS V14.01,2013-12-02 17:37:00,
2013-12-02 12:42:00,37.9,35.2,29.94,NE,44,0.0,0.0,90,0.00,,,0.00,VWS V14.01,2013-12-02 17:42:00,
2013-12-02 12:47:00,38.0,35.3,29.94,NE,44,0.0,0.0,90,0.00,,,0.00,VWS V14.01,2013-12-02 17:47:00,
2013-12-02 12:52:00,38.0,35.3,29.94,NE,44,0.0,0.0,90,0.00,,,0.00,VWS V14.01,2013-12-02 17:52:00,
2013-12-02 12:57:00,38.0,35.3,29.93,NE,44,0.0,0.0,90,0.00,,,0.00,VWS V14.01,2013-12-02 17:57:00,
2013-12-02 13:03:00,38.0,35.3,29.93,NE,44,0.0,0.0,90,0.00,,,0.00,VWS V14.01,2013-12-02 18:03:00,
2013-12-02 13:08:00,38.1,35.4,29.93,NE,44,0.0,0.0,90,0.00,,,0.00,VWS V14.01,2013-12-02 18:08:00,
2013-12-02 13:13:00,38.2,35.5,29.93,NE,44,0.0,0.0,90,0.00,,,0.00,VWS V14.01,2013-12-02 18:13:00,
2013-12-02 13:18:00,38.4,36.0,29.93,NE,44,0.0,0.0,91,0.00,,,0.00,VWS V14.01,2013-12-02 18:18:00,
2013-12-02 13:23:00,38.6,35.6,29.92,NE,44,0.0,0.0,89,0.00,,,0.00,VWS V14.01,2013-12-02 18:23:00,
2013-12-02 13:28:00,38.8,35.8,29.92,NE,44,0.0,0.0,89,0.00,,,0.00,VWS V14.01,2013-12-02 18:28:00,
2013-12-02 13:33:00,39.0,35.8,29.92,NE,44,0.0,0.0,88,0.00,,,0.00,VWS V14.01,2013-12-02 18:33:00,
2013-12-02 13:38:00,39.3,36.0,29.92,NE,44,0.0,1.0,88,0.00,,,0.00,VWS V14.01,2013-12-02 18:38:00,
2013-12-02 13:43:00,39.7,35.9,29.92,NE,44,2.0,2.0,86,0.00,,,0.00,VWS V14.01,2013-12-02 18:43:00,
2013-12-02 13:49:00,40.0,36.2,29.91,NE,44,0.0,2.0,86,0.00,,,0.00,VWS V14.01,2013-12-02 18:49:00,
2013-12-02 13:54:00,40.6,36.2,29.91,NE,44,0.0,2.0,84,0.00,,,0.00,VWS V14.01,2013-12-02 18:54:00,
2013-12-02 13:59:00,41.1,36.3,29.91,NE,44,0.0,2.0,83,0.00,,,0.00,VWS V14.01,2013-12-02 18:59:00,
2013-12-02 14:04:00,41.5,36.1,29.91,NE,44,0.0,1.0,81,0.00,,,0.00,VWS V14.01,2013-12-02 19:04:00,
2013-12-02 14:09:00,41.9,36.2,29.90,NE,44,1.0,1.0,80,0.00,,,0.00,VWS V14.01,2013-12-02 19:09:00,
2013-12-02 14:14:00,42.0,36.0,29.90,NE,44,2.0,2.0,79,0.00,,,0.00,VWS V14.01,2013-12-02 19:14:00,
2013-12-02 14:19:00,42.0,36.0,29.90,NE,44,1.0,3.0,79,0.00,,,0.00,VWS V14.01,2013-12-02 19:19:00,
2013-12-02 14:24:00,42.1,36.1,29.90,NE,44,0.0,3.0,79,0.00,,,0.00,VWS V14.01,2013-12-02 19:24:00,
2013-12-02 14:29:00,42.2,36.2,29.90,NE,44,0.0,3.0,79,0.00,,,0.00,VWS V14.01,2013-12-02 19:29:00,
2013-12-02 14:34:00,42.4,36.4,29.90,NE,44,0.0,2.0,79,0.00,,,0.00,VWS V14.01,2013-12-02 19:34:00,
2013-12-02 14:39:00,42.5,36.5,29.90,West,259,0.0,4.0,79,0.00,,,0.00,VWS V14.01,2013-12-02 19:39:00,
2013-12-02 14:44:00,42.4,37.6,29.90,WSW,251,0.0,4.0,83,0.00,,,0.00,VWS V14.01,2013-12-02 19:44:00,
2013-12-02 14:50:00,42.4,36.4,29.90,WSW,251,0.0,4.0,79,0.00,,,0.00,VWS V14.01,2013-12-02 19:50:00,
2013-12-02 14:55:00,42.4,36.0,29.90,WSW,251,0.0,4.0,78,0.00,,,0.00,VWS V14.01,2013-12-02 19:55:00,
2013-12-02 15:00:00,42.4,36.0,29.90,WSW,251,0.0,4.0,78,0.00,,,0.00,VWS V14.01,2013-12-02 20:00:00,
2013-12-02 15:05:00,42.4,36.0,29.90,WSW,251,0.0,0.0,78,0.00,,,0.00,VWS V14.01,2013-12-02 20:05:00,
2013-12-02 15:10:00,42.4,35.7,29.90,WSW,251,0.0,0.0,77,0.00,,,0.00,VWS V14.01,2013-12-02 20:10:00,
2013-12-02 15:15:00,42.4,35.7,29.90,WSW,251,0.0,1.0,77,0.00,,,0.00,VWS V14.01,2013-12-02 20:15:00,
2013-12-02 15:20:00,42.4,35.7,29.90,WSW,251,0.0,1.0,77,0.00,,,0.00,VWS V14.01,2013-12-02 20:20:00,
2013-12-02 15:25:00,42.3,35.6,29.90,WSW,251,0.0,1.0,77,0.00,,,0.00,VWS V14.01,2013-12-02 20:25:00,
2013-12-02 15:30:00,42.1,35.4,29.91,WSW,251,0.0,0.0,77,0.00,,,0.00,VWS V14.01,2013-12-02 20:30:00,
2013-12-02 15:35:00,41.9,35.5,29.91,WSW,251,0.0,0.0,78,0.00,,,0.00,VWS V14.01,2013-12-02 20:35:00,
2013-12-02 15:40:00,41.7,35.4,29.91,WSW,251,0.0,0.0,78,0.00,,,0.00,VWS V14.01,2013-12-02 20:40:00,
2013-12-02 15:46:00,41.4,35.1,29.91,WSW,251,0.0,0.0,78,0.00,,,0.00,VWS V14.01,2013-12-02 20:46:00,
2013-12-02 15:51:00,41.1,35.1,29.92,WSW,251,0.0,0.0,79,0.00,,,0.00,VWS V14.01,2013-12-02 20:51:00,
2013-12-02 15:56:00,40.8,34.8,29.92,WSW,251,0.0,0.0,79,0.00,,,0.00,VWS V14.01,2013-12-02 20:56:00,
2013-12-02 16:01:00,40.4,34.7,29.92,WSW,251,0.0,0.0,80,0.00,,,0.00,VWS V14.01,2013-12-02 21:01:00,
2013-12-02 16:06:00,40.0,34.7,29.92,WSW,251,0.0,0.0,81,0.00,,,0.00,VWS V14.01,2013-12-02 21:06:00,
2013-12-02 16:11:00,39.4,34.4,29.92,WSW,251,0.0,0.0,82,0.00,,,0.00,VWS V14.01,2013-12-02 21:11:00,
2013-12-02 16:16:00,39.1,34.1,29.92,WSW,251,0.0,0.0,82,0.00,,,0.00,VWS V14.01,2013-12-02 21:16:00,
2013-12-02 16:21:00,38.7,34.0,29.93,WSW,251,0.0,0.0,83,0.00,,,0.00,VWS V14.01,2013-12-02 21:21:00,
2013-12-02 16:26:00,38.4,33.7,29.93,WSW,251,0.0,0.0,83,0.00,,,0.00,VWS V14.01,2013-12-02 21:26:00,
2013-12-02 16:31:00,38.2,33.8,29.93,WSW,251,0.0,0.0,84,0.00,,,0.00,VWS V14.01,2013-12-02 21:31:00,
2013-12-02 16:36:00,38.0,33.9,29.94,WSW,251,0.0,0.0,85,0.00,,,0.00,VWS V14.01,2013-12-02 21:36:00,
2013-12-02 16:41:00,37.8,34.0,29.94,WSW,251,0.0,0.0,86,0.00,,,0.00,VWS V14.01,2013-12-02 21:41:00,
2013-12-02 16:46:00,37.6,34.1,29.94,WSW,251,0.0,0.0,87,0.00,,,0.00,VWS V14.01,2013-12-02 21:46:00,
2013-12-02 16:51:00,37.5,34.0,29.93,WSW,251,0.0,0.0,87,0.00,,,0.00,VWS V14.01,2013-12-02 21:51:00,
2013-12-02 16:57:00,37.1,33.6,29.93,WSW,251,0.0,0.0,87,0.00,,,0.00,VWS V14.01,2013-12-02 21:57:00,
2013-12-02 17:02:00,36.9,33.4,29.93,WSW,251,0.0,0.0,87,0.00,,,0.00,VWS V14.01,2013-12-02 22:02:00,
2013-12-02 17:07:00,36.6,33.4,29.92,West,269,0.0,2.0,88,0.00,,,0.00,VWS V14.01,2013-12-02 22:07:00,
2013-12-02 17:12:00,36.2,33.0,29.93,West,269,0.0,2.0,88,0.00,,,0.00,VWS V14.01,2013-12-02 22:12:00,
2013-12-02 17:17:00,35.8,32.9,29.93,West,269,0.0,2.0,89,0.00,,,0.00,VWS V14.01,2013-12-02 22:17:00,
2013-12-02 17:22:00,35.5,32.6,29.93,West,269,0.0,2.0,89,0.00,,,0.00,VWS V14.01,2013-12-02 22:22:00,
2013-12-02 17:27:00,35.1,32.5,29.92,West,269,0.0,2.0,90,0.00,,,0.00,VWS V14.01,2013-12-02 22:27:00,
2013-12-02 17:32:00,34.8,32.2,29.93,West,269,0.0,0.0,90,0.00,,,0.00,VWS V14.01,2013-12-02 22:32:00,
2013-12-02 17:38:00,34.4,31.8,29.92,West,269,0.0,0.0,90,0.00,,,0.00,VWS V14.01,2013-12-02 22:38:00,
2013-12-02 17:43:00,34.0,31.6,29.93,West,269,0.0,0.0,91,0.00,,,0.00,VWS V14.01,2013-12-02 22:43:00,
2013-12-02 17:48:00,33.7,31.4,29.93,West,269,0.0,0.0,91,0.00,,,0.00,VWS V14.01,2013-12-02 22:48:00,
2013-12-02 17:53:00,33.4,31.3,29.92,West,269,1.0,2.0,92,0.00,,,0.00,VWS V14.01,2013-12-02 22:53:00,
2013-12-02 17:58:00,33.1,31.0,29.92,West,269,0.0,2.0,92,0.00,,,0.00,VWS V14.01,2013-12-02 22:58:00,
2013-12-02 18:03:00,32.7,30.6,29.91,West,274,1.0,2.0,92,0.00,,,0.00,VWS V14.01,2013-12-02 23:03:00,
2013-12-02 18:08:00,32.3,30.2,29.91,NNE,27,2.0,3.0,92,0.00,,,0.00,VWS V14.01,2013-12-02 23:08:00,
2013-12-02 18:13:00,31.9,30.1,29.91,NNE,27,1.0,3.0,93,0.00,,,0.00,VWS V14.01,2013-12-02 23:13:00,
2013-12-02 18:18:00,31.6,29.8,29.91,NNE,27,0.0,3.0,93,0.00,,,0.00,VWS V14.01,2013-12-02 23:18:00,
2013-12-02 18:24:00,31.5,30.0,29.91,NNE,27,0.0,3.0,94,0.00,,,0.00,VWS V14.01,2013-12-02 23:24:00,
2013-12-02 18:29:00,31.3,29.8,29.91,NNE,27,1.0,3.0,94,0.00,,,0.00,VWS V14.01,2013-12-02 23:29:00,
2013-12-02 18:34:00,31.0,29.5,29.91,NNE,27,0.0,2.0,94,0.00,,,0.00,VWS V14.01,2013-12-02 23:34:00,
2013-12-02 18:39:00,30.7,29.2,29.92,NNE,27,0.0,2.0,94,0.00,,,0.00,VWS V14.01,2013-12-02 23:39:00,
2013-12-02 18:44:00,30.6,29.1,29.92,NNE,27,0.0,2.0,94,0.00,,,0.00,VWS V14.01,2013-12-02 23:44:00,
2013-12-02 18:49:00,30.5,29.0,29.91,NNE,27,0.0,2.0,94,0.00,,,0.00,VWS V14.01,2013-12-02 23:49:00,
2013-12-02 18:54:00,30.3,28.8,29.91,NNE,27,0.0,2.0,94,0.00,,,0.00,VWS V14.01,2013-12-02 23:54:00,
2013-12-02 18:59:00,30.1,28.6,29.91,NNE,27,0.0,2.0,94,0.00,,,0.00,VWS V14.01,2013-12-02 23:59:00,
2013-12-02 19:04:00,30.0,28.7,29.92,NNE,27,0.0,2.0,95,0.00,,,0.00,VWS V14.01,2013-12-03 00:04:00,
2013-12-02 19:10:00,29.9,28.6,29.92,NNE,27,0.0,2.0,95,0.00,,,0.00,VWS V14.01,2013-12-03 00:10:00,
2013-12-02 19:15:00,29.7,28.5,29.92,NNE,27,0.0,2.0,95,0.00,,,0.00,VWS V14.01,2013-12-03 00:15:00,
2013-12-02 19:20:00,29.7,28.5,29.92,NNE,27,0.0,2.0,95,0.00,,,0.00,VWS V14.01,2013-12-03 00:20:00,
2013-12-02 19:25:00,29.5,28.2,29.92,NNE,27,1.0,2.0,95,0.00,,,0.00,VWS V14.01,2013-12-03 00:25:00,
2013-12-02 19:30:00,29.4,28.1,29.92,NNE,27,2.0,2.0,95,0.00,,,0.00,VWS V14.01,2013-12-03 00:30:00,
2013-12-02 19:35:00,29.4,28.1,29.92,NNE,27,0.0,2.0,95,0.00,,,0.00,VWS V14.01,2013-12-03 00:35:00,
2013-12-02 19:40:00,29.3,28.3,29.92,NNE,27,1.0,2.0,96,0.00,,,0.00,VWS V14.01,2013-12-03 00:40:00,
2013-12-02 19:45:00,29.2,28.2,29.92,NNE,27,0.0,3.0,96,0.00,,,0.00,VWS V14.01,2013-12-03 00:45:00,
2013-12-02 19:50:00,29.2,28.2,29.92,NNE,27,0.0,3.0,96,0.00,,,0.00,VWS V14.01,2013-12-03 00:50:00,
2013-12-02 19:56:00,29.2,28.2,29.92,NNE,27,0.0,3.0,96,0.00,,,0.00,VWS V14.01,2013-12-03 00:56:00,
2013-12-02 20:01:00,29.1,28.1,29.92,NNE,27,0.0,0.0,96,0.00,,,0.00,VWS V14.01,2013-12-03 01:01:00,
2013-12-02 20:06:00,28.9,27.9,29.92,NNE,27,1.0,2.0,96,0.00,,,0.00,VWS V14.01,2013-12-03 01:06:00,
2013-12-02 20:11:00,28.8,27.8,29.92,NNE,27,1.0,2.0,96,0.00,,,0.00,VWS V14.01,2013-12-03 01:11:00,
2013-12-02 20:16:00,28.9,27.9,29.92,NNE,27,0.0,2.0,96,0.00,,,0.00,VWS V14.01,2013-12-03 01:16:00,
2013-12-02 20:21:00,28.8,27.8,29.92,NNE,27,1.0,2.0,96,0.00,,,0.00,VWS V14.01,2013-12-03 01:21:00,
2013-12-02 20:26:00,28.9,27.9,29.92,NNE,27,1.0,2.0,96,0.00,,,0.00,VWS V14.01,2013-12-03 01:26:00,
2013-12-02 20:31:00,28.8,27.8,29.92,NNE,27,0.0,1.0,96,0.00,,,0.00,VWS V14.01,2013-12-03 01:31:00,
2013-12-02 20:36:00,28.8,27.8,29.92,NNE,27,1.0,2.0,96,0.00,,,0.00,VWS V14.01,2013-12-03 01:36:00,
2013-12-02 20:42:00,28.7,27.7,29.92,NNE,27,1.0,3.0,96,0.00,,,0.00,VWS V14.01,2013-12-03 01:42:00,
2013-12-02 20:47:00,28.7,27.7,29.92,NNE,27,0.0,3.0,96,0.00,,,0.00,VWS V14.01,2013-12-03 01:47:00,
2013-12-02 20:52:00,28.5,27.5,29.92,NNE,27,0.0,3.0,96,0.00,,,0.00,VWS V14.01,2013-12-03 01:52:00,
2013-12-02 20:57:00,28.4,27.4,29.92,NNE,27,1.0,3.0,96,0.00,,,0.00,VWS V14.01,2013-12-03 01:57:00,
2013-12-02 21:02:00,28.3,27.3,29.92,NNE,27,2.0,2.0,96,0.00,,,0.00,VWS V14.01,2013-12-03 02:02:00,
2013-12-02 21:07:00,28.2,27.2,29.92,NNE,27,1.0,2.0,96,0.00,,,0.00,VWS V14.01,2013-12-03 02:07:00,
2013-12-02 21:12:00,28.1,27.1,29.92,NNE,27,0.0,2.0,96,0.00,,,0.00,VWS V14.01,2013-12-03 02:12:00,
2013-12-02 21:17:00,28.1,27.1,29.92,NNE,27,0.0,2.0,96,0.00,,,0.00,VWS V14.01,2013-12-03 02:17:00,
2013-12-02 21:23:00,28.1,27.4,29.93,NNE,27,0.0,2.0,97,0.00,,,0.00,VWS V14.01,2013-12-03 02:23:00,
2013-12-02 21:28:00,28.1,27.4,29.93,NNE,27,0.0,2.0,97,0.00,,,0.00,VWS V14.01,2013-12-03 02:28:00,
2013-12-02 21:33:00,28.1,27.4,29.93,NNE,27,0.0,0.0,97,0.00,,,0.00,VWS V14.01,2013-12-03 02:33:00,
2013-12-02 21:38:00,28.0,27.3,29.93,NNE,27,2.0,2.0,97,0.00,,,0.00,VWS V14.01,2013-12-03 02:38:00,
2013-12-02 21:43:00,27.9,26.9,29.93,NNE,27,1.0,2.0,96,0.00,,,0.00,VWS V14.01,2013-12-03 02:43:00,
2013-12-02 21:48:00,27.9,27.2,29.93,NNE,27,1.0,2.0,97,0.00,,,0.00,VWS V14.01,2013-12-03 02:48:00,
2013-12-02 21:53:00,27.8,27.1,29.93,NNE,27,0.0,2.0,97,0.00,,,0.00,VWS V14.01,2013-12-03 02:53:00,
2013-12-02 21:58:00,27.7,27.0,29.93,NNE,27,0.0,2.0,97,0.00,,,0.00,VWS V14.01,2013-12-03 02:58:00,
2013-12-02 22:04:00,27.6,26.9,29.93,NNE,27,0.0,2.0,97,0.00,,,0.00,VWS V14.01,2013-12-03 03:04:00,
2013-12-02 22:09:00,27.6,26.9,29.93,NNE,27,0.0,2.0,97,0.00,,,0.00,VWS V14.01,2013-12-03 03:09:00,
2013-12-02 22:14:00,27.5,26.8,29.93,NNE,27,0.0,2.0,97,0.00,,,0.00,VWS V14.01,2013-12-03 03:14:00,
2013-12-02 22:19:00,27.5,26.8,29.93,NNE,27,0.0,2.0,97,0.00,,,0.00,VWS V14.01,2013-12-03 03:19:00,
2013-12-02 22:24:00,27.4,26.7,29.93,NNE,27,0.0,2.0,97,0.00,,,0.00,VWS V14.01,2013-12-03 03:24:00,
2013-12-02 22:29:00,27.4,26.7,29.93,NNE,27,0.0,2.0,97,0.00,,,0.00,VWS V14.01,2013-12-03 03:29:00,
2013-12-02 22:34:00,27.4,26.7,29.93,NNE,27,0.0,0.0,97,0.00,,,0.00,VWS V14.01,2013-12-03 03:34:00,
2013-12-02 22:39:00,27.4,26.7,29.93,NNE,27,0.0,0.0,97,0.00,,,0.00,VWS V14.01,2013-12-03 03:39:00,
2013-12-02 22:44:00,27.4,26.7,29.93,NNE,27,0.0,0.0,97,0.00,,,0.00,VWS V14.01,2013-12-03 03:44:00,
2013-12-02 22:49:00,27.3,26.6,29.92,NNE,27,0.0,1.0,97,0.00,,,0.00,VWS V14.01,2013-12-03 03:49:00,
2013-12-02 22:54:00,27.2,26.5,29.92,NNE,27,0.0,2.0,97,0.00,,,0.00,VWS V14.01,2013-12-03 03:54:00,
2013-12-02 22:59:00,27.2,26.5,29.92,NNE,27,0.0,2.0,97,0.00,,,0.00,VWS V14.01,2013-12-03 03:59:00,
2013-12-02 23:04:00,27.2,26.5,29.92,NNE,27,0.0,2.0,97,0.00,,,0.00,VWS V14.01,2013-12-03 04:04:00,
2013-12-02 23:10:00,27.1,26.4,29.93,NNE,27,0.0,2.0,97,0.00,,,0.00,VWS V14.01,2013-12-03 04:10:00,
2013-12-02 23:15:00,27.2,26.5,29.93,NNE,27,0.0,2.0,97,0.00,,,0.00,VWS V14.01,2013-12-03 04:15:00,
2013-12-02 23:20:00,27.3,26.6,29.93,NNE,27,0.0,2.0,97,0.00,,,0.00,VWS V14.01,2013-12-03 04:20:00,
2013-12-02 23:25:00,27.3,26.6,29.93,NNE,27,1.0,3.0,97,0.00,,,0.00,VWS V14.01,2013-12-03 04:25:00,
2013-12-02 23:30:00,27.2,26.5,29.92,NNE,27,2.0,2.0,97,0.00,,,0.00,VWS V14.01,2013-12-03 04:30:00,
2013-12-02 23:35:00,27.1,26.4,29.92,NNE,27,2.0,2.0,97,0.00,,,0.00,VWS V14.01,2013-12-03 04:35:00,
2013-12-02 23:40:00,27.2,26.5,29.92,NNE,27,0.0,2.0,97,0.00,,,0.00,VWS V14.01,2013-12-03 04:40:00,
2013-12-02 23:45:00,27.2,26.5,29.92,NNE,27,0.0,2.0,97,0.00,,,0.00,VWS V14.01,2013-12-03 04:45:00,
2013-12-02 23:50:00,27.3,26.6,29.92,NNE,27,1.0,2.0,97,0.00,,,0.00,VWS V14.01,2013-12-03 04:50:00,
2013-12-02 23:55:00,27.4,26.7,29.92,NNE,27,0.0,2.0,97,0.00,,,0.00,VWS V14.01,2013-12-03 04:55:00,